QPF
0.02 0.02 0.03 0.02 0.03 0.03 0.04 0.06 0.06 0.04 0.03 0.03 0.04 0.07 0.12 0.12 0.09 0.09 0.09 0.02 0.00 0.00 0.01 0.03 0.06 0.12 0.18 0.21 0.19 0.16 0.13 0.11 0.08 0.06 0.05 0.04 0.05 0.04
0.03 0.03 0.02 0.02 0.03 0.03 0.04 0.06 0.08 0.08 0.06 0.03 0.04 0.08 0.12 0.11 0.09 0.07 0.04 0.02 0.01 0.01 0.05 0.14 0.21 0.30 0.35 0.35 0.30 0.25 0.21 0.17 0.14 0.11 0.08 0.06 0.05 0.03
0.02 0.02 0.02 0.03 0.04 0.04 0.06 0.08 0.10 0.11 0.10 0.04 0.04 0.09 0.11 0.11 0.10 0.09 0.05 0.05 0.04 0.06 0.14 0.30 0.45 0.59 0.64 0.54 0.45 0.35 0.28 0.22 0.17 0.14 0.10 0.06 0.04 0.03
0.03 0.03 0.03 0.04 0.05 0.06 0.09 0.10 0.10 0.11 0.12 0.07 0.05 0.11 0.14 0.16 0.19 0.16 0.10 0.08 0.07 0.12 0.24 0.42 0.55 0.74 0.91 0.82 0.66 0.49 0.35 0.25 0.18 0.13 0.09 0.06 0.04 0.04
0.04 0.05 0.05 0.07 0.08 0.09 0.11 0.11 0.11 0.11 0.12 0.10 0.07 0.14 0.21 0.28 0.28 0.19 0.12 0.10 0.06 0.09 0.25 0.52 0.71 0.86 1.07 1.09 0.95 0.71 0.46 0.26 0.17 0.11 0.07 0.05 0.03 0.02
0.04 0.06 0.07 0.09 0.09 0.10 0.10 0.09 0.10 0.12 0.13 0.12 0.11 0.18 0.24 0.30 0.26 0.18 0.12 0.10 0.07 0.06 0.20 0.57 0.86 0.88 0.97 1.08 1.03 0.83 0.56 0.33 0.19 0.11 0.06 0.03 0.02 0.01
0.03 0.03 0.04 0.05 0.08 0.09 0.10 0.10 0.10 0.10 0.10 0.11 0.15 0.20 0.22 0.25 0.21 0.13 0.08 0.07 0.05 0.05 0.12 0.40 0.75 0.83 0.76 0.76 0.72 0.59 0.43 0.28 0.16 0.08 0.04 0.01 0.00 0.00
0.03 0.02 0.02 0.03 0.04 0.07 0.09 0.09 0.08 0.08 0.08 0.12 0.15 0.14 0.13 0.12 0.11 0.07 0.05 0.03 0.02 0.04 0.06 0.21 0.43 0.60 0.57 0.46 0.37 0.25 0.16 0.10 0.05 0.02 0.01 0.00 0.00 0.00
0.04 0.03 0.02 0.01 0.03 0.05 0.07 0.07 0.07 0.08 0.08 0.15 0.19 0.12 0.09 0.08 0.07 0.05 0.04 0.03 0.02 0.02 0.04 0.15 0.28 0.37 0.32 0.23 0.15 0.07 0.03 0.01 0.01 0.00 0.00 0.00 0.00 0.00
0.03 0.02 0.02 0.01 0.03 0.07 0.08 0.07 0.07 0.08 0.07 0.12 0.20 0.17 0.12 0.12 0.10 0.05 0.04 0.05 0.05 0.03 0.05 0.13 0.21 0.21 0.14 0.08 0.04 0.02 0.01 0.00 0.00 0.00 0.00 0.00 0.00 0.00
0.02 0.01 0.01 0.02 0.05 0.12 0.13 0.12 0.11 0.11 0.10 0.17 0.27 0.32 0.28 0.24 0.17 0.09 0.06 0.03 0.03 0.04 0.07 0.10 0.12 0.10 0.06 0.04 0.02 0.01 0.00 0.00 0.00 0.00 0.00 0.00 0.00 0.00
0.01 0.01 0.02 0.04 0.08 0.16 0.18 0.15 0.13 0.14 0.13 0.18 0.28 0.35 0.32 0.32 0.27 0.15 0.07 0.02 0.03 0.06 0.07 0.06 0.05 0.04 0.03 0.03 0.02 0.02 0.01 0.01 0.00 0.00 0.00 0.00 0.00 0.00
0.00 0.01 0.03 0.06 0.08 0.15 0.19 0.16 0.17 0.16 0.14 0.14 0.15 0.19 0.24 0.29 0.28 0.22 0.12 0.05 0.04 0.04 0.03 0.02 0.02 0.01 0.01 0.01 0.01 0.01 0.01 0.01 0.00 0.00 0.00 0.00 0.00 0.00
0.01 0.03 0.06 0.06 0.06 0.11 0.14 0.17 0.24 0.24 0.16 0.13 0.09 0.09 0.12 0.16 0.19 0.16 0.11 0.08 0.05 0.03 0.01 0.01 0.00 0.00 0.00 0.00 0.00 0.00 0.01 0.01 0.00 0.00 0.00 0.00 0.00 0.00
0.01 0.05 0.07 0.05 0.06 0.10 0.16 0.21 0.26 0.24 0.18 0.12 0.09 0.08 0.07 0.08 0.09 0.11 0.12 0.09 0.04 0.02 0.01 0.01 0.00 0.00 0.00 0.00 0.00 0.00 0.00 0.00 0.00 0.00 0.00 0.00 0.00 0.00
0.01 0.05 0.07 0.04 0.04 0.09 0.15 0.19 0.21 0.21 0.17 0.13 0.11 0.10 0.09 0.07 0.08 0.09 0.09 0.06 0.03 0.03 0.02 0.01 0.00 0.00 0.00 0.00 0.00 0.00 0.00 0.00 0.00 0.00 0.00 0.00 0.00 0.00
0.01 0.03 0.04 0.02 0.03 0.07 0.10 0.13 0.14 0.13 0.12 0.10 0.09 0.10 0.11 0.11 0.10 0.10 0.07 0.04 0.02 0.02 0.02 0.01 0.01 0.00 0.00 0.00 0.00 0.00 0.00 0.00 0.00 0.00 0.00 0.00 0.00 0.00
0.00 0.00 0.01 0.02 0.04 0.08 0.09 0.09 0.08 0.07 0.06 0.05 0.06 0.07 0.09 0.10 0.10 0.08 0.04 0.02 0.01 0.01 0.01 0.00 0.00 0.00 0.00 0.00 0.00 0.00 0.00 0.00 0.00 0.00 0.00 0.00 0.00 0.00
0.00 0.00 0.01 0.02 0.04 0.09 0.10 0.10 0.07 0.05 0.03 0.03 0.04 0.05 0.06 0.07 0.06 0.05 0.03 0.02 0.01 0.00 0.00 0.00 0.00 0.00 0.00 0.00 0.00 0.00 0.00 0.00 0.00 0.00 0.00 0.00 0.00 0.00
0.01 0.01 0.01 0.01 0.03 0.07 0.10 0.12 0.12 0.08 0.04 0.04 0.05 0.06 0.06 0.05 0.04 0.03 0.02 0.01 0.01 0.00 0.00 0.00 0.00 0.00 0.00 0.00 0.00 0.00 0.00 0.00 0.00 0.00 0.00 0.00 0.00 0.00
0.01 0.01 0.01 0.01 0.02 0.03 0.06 0.09 0.11 0.10 0.06 0.04 0.05 0.06 0.06 0.05 0.03 0.02 0.01 0.01 0.00 0.00 0.01 0.00 0.00 0.00 0.00 0.00 0.00 0.00 0.00 0.00 0.00 0.00 0.00 0.00 0.00 0.00
0.02 0.01 0.01 0.01 0.01 0.02 0.03 0.06 0.07 0.09 0.08 0.05 0.05 0.05 0.05 0.04 0.02 0.01 0.01 0.01 0.01 0.00 0.00 0.00 0.00 0.00 0.00 0.00 0.00 0.00 0.00 0.00 0.00 0.00 0.00 0.00 0.00 0.00
0.02 0.02 0.01 0.01 0.01 0.01 0.02 0.04 0.06 0.07 0.07 0.06 0.05 0.05 0.04 0.03 0.02 0.02 0.01 0.01 0.00 0.00 0.00 0.00 0.00 0.00 0.00 0.00 0.00 0.00 0.01 0.01 0.01 0.00 0.00 0.00 0.00 0.00
MSLP
1013.29 1012.97 1012.67 1012.36 1012.01 1011.61 1011.14 1010.59 1010.00 1009.38 1008.79 1008.26 1007.84 1007.55 1007.39 1007.35 1007.39 1007.43 1007.43 1007.31 1007.03 1006.57 1005.94 1005.19 1004.39 1003.60 1002.93 1002.44 1002.20 1002.23 1002.53 1003.07 1003.79 1004.66 1005.61 1006.59 1007.57 1008.52
1012.94 1012.64 1012.37 1012.11 1011.81 1011.46 1011.03 1010.53 1009.98 1009.40 1008.84 1008.34 1007.95 1007.69 1007.55 1007.53 1007.56 1007.59 1007.55 1007.37 1007.01 1006.45 1005.71 1004.84 1003.93 1003.06 1002.32 1001.81 1001.58 1001.66 1002.05 1002.71 1003.58 1004.61 1005.71 1006.83 1007.93 1008.98
1012.54 1012.22 1011.95 1011.69 1011.41 1011.08 1010.69 1010.23 1009.72 1009.20 1008.69 1008.26 1007.93 1007.73 1007.66 1007.69 1007.76 1007.82 1007.79 1007.61 1007.22 1006.63 1005.85 1004.94 1003.98 1003.07 1002.31 1001.80 1001.59 1001.72 1002.17 1002.91 1003.87 1004.99 1006.19 1007.40 1008.56 1009.65
1012.09 1011.73 1011.41 1011.11 1010.81 1010.48 1010.09 1009.66 1009.20 1008.73 1008.29 1007.94 1007.71 1007.61 1007.63 1007.75 1007.92 1008.06 1008.11 1007.99 1007.67 1007.12 1006.39 1005.52 1004.60 1003.73 1003.00 1002.52 1002.35 1002.50 1002.98 1003.75 1004.75 1005.89 1007.11 1008.33 1009.50 1010.58
1011.63 1011.18 1010.78 1010.42 1010.06 1009.68 1009.28 1008.86 1008.42 1008.00 1007.64 1007.38 1007.25 1007.27 1007.42 1007.68 1007.98 1008.26 1008.45 1008.47 1008.29 1007.89 1007.30 1006.56 1005.77 1005.00 1004.37 1003.96 1003.83 1004.01 1004.49 1005.24 1006.20 1007.31 1008.47 1009.64 1010.75 1011.77
1011.16 1010.62 1010.12 1009.66 1009.22 1008.78 1008.33 1007.89 1007.46 1007.08 1006.79 1006.61 1006.59 1006.74 1007.04 1007.45 1007.92 1008.38 1008.75 1008.99 1009.02 1008.84 1008.46 1007.94 1007.35 1006.76 1006.27 1005.97 1005.90 1006.10 1006.56 1007.26 1008.14 1009.14 1010.19 1011.24 1012.24 1013.16
1010.73 1010.08 1009.48 1008.91 1008.37 1007.84 1007.34 1006.86 1006.42 1006.07 1005.83 1005.74 1005.82 1006.09 1006.53 1007.10 1007.75 1008.40 1009.00 1009.46 1009.75 1009.83 1009.73 1009.48 1009.14 1008.77 1008.47 1008.30 1008.31 1008.54 1008.97 1009.58 1010.34 1011.20 1012.10 1013.00 1013.85 1014.64
1010.35 1009.61 1008.91 1008.24 1007.60 1006.99 1006.41 1005.89 1005.44 1005.10 1004.90 1004.88 1005.06 1005.44 1006.00 1006.72 1007.53 1008.37 1009.17 1009.86 1010.40 1010.76 1010.94 1010.97 1010.90 1010.79 1010.69 1010.68 1010.78 1011.03 1011.42 1011.95 1012.58 1013.28 1014.01 1014.73 1015.42 1016.07
1010.07 1009.26 1008.47 1007.70 1006.98 1006.29 1005.65 1005.09 1004.63 1004.31 1004.15 1004.19 1004.44 1004.91 1005.58 1006.41 1007.35 1008.33 1009.30 1010.18 1010.93 1011.53 1011.97 1012.27 1012.45 1012.57 1012.68 1012.81 1013.01 1013.29 1013.66 1014.11 1014.61 1015.16 1015.72 1016.27 1016.81 1017.31
1009.92 1009.05 1008.19 1007.36 1006.56 1005.82 1005.15 1004.57 1004.12 1003.82 1003.70 1003.79 1004.11 1004.65 1005.39 1006.29 1007.31 1008.38 1009.44 1010.45 1011.34 1012.11 1012.74 1013.24 1013.63 1013.95 1014.23 1014.50 1014.79 1015.10 1015.45 1015.84 1016.24 1016.66 1017.07 1017.48 1017.88 1018.27
1009.93 1009.01 1008.11 1007.23 1006.40 1005.63 1004.95 1004.38 1003.95 1003.69 1003.63 1003.78 1004.15 1004.75 1005.52 1006.46 1007.49 1008.58 1009.67 1010.71 1011.67 1012.52 1013.25 1013.88 1014.41 1014.87 1015.27 1015.65 1016.01 1016.36 1016.71 1017.05 1017.38 1017.70 1018.00 1018.30 1018.60 1018.90
1010.09 1009.16 1008.23 1007.33 1006.48 1005.71 1005.05 1004.51 1004.14 1003.95 1003.95 1004.17 1004.60 1005.23 1006.02 1006.94 1007.95 1009.00 1010.04 1011.04 1011.97 1012.82 1013.57 1014.23 1014.83 1015.36 1015.84 1016.29 1016.71 1017.09 1017.45 1017.77 1018.06 1018.32 1018.56 1018.78 1019.02 1019.27
1010.42 1009.47 1008.53 1007.63 1006.79 1006.05 1005.43 1004.96 1004.66 1004.55 1004.64 1004.93 1005.41 1006.06 1006.85 1007.73 1008.67 1009.63 1010.57 1011.47 1012.30 1013.07 1013.76 1014.40 1014.99 1015.54 1016.05 1016.54 1016.99 1017.40 1017.78 1018.10 1018.38 1018.62 1018.83 1019.02 1019.23 1019.46
1010.88 1009.93 1009.00 1008.11 1007.31 1006.61 1006.06 1005.67 1005.46 1005.44 1005.61 1005.97 1006.50 1007.16 1007.93 1008.75 1009.60 1010.44 1011.24 1012.00 1012.69 1013.33 1013.92 1014.48 1015.02 1015.54 1016.05 1016.54 1017.02 1017.46 1017.85 1018.20 1018.49 1018.74 1018.96 1019.16 1019.37 1019.61
1011.45 1010.50 1009.59 1008.74 1007.98 1007.35 1006.87 1006.56 1006.44 1006.51 1006.77 1007.18 1007.74 1008.41 1009.13 1009.88 1010.63 1011.34 1011.99 1012.59 1013.13 1013.63 1014.10 1014.56 1015.02 1015.50 1015.98 1016.47 1016.95 1017.42 1017.84 1018.22 1018.55 1018.83 1019.09 1019.32 1019.57 1019.84
1012.07 1011.15 1010.27 1009.46 1008.76 1008.19 1007.79 1007.57 1007.53 1007.67 1007.99 1008.44 1009.01 1009.66 1010.33 1011.01 1011.65 1012.23 1012.75 1013.20 1013.61 1013.97 1014.33 1014.70 1015.09 1015.51 1015.97 1016.45 1016.94 1017.42 1017.88 1018.30 1018.68 1019.02 1019.32 1019.61 1019.90 1020.22
1012.72 1011.84 1011.01 1010.26 1009.62 1009.12 1008.79 1008.63 1008.65 1008.84 1009.18 1009.65 1010.20 1010.80 1011.42 1012.00 1012.55 1013.02 1013.42 1013.77 1014.06 1014.34 1014.61 1014.91 1015.25 1015.64 1016.08 1016.56 1017.06 1017.56 1018.05 1018.51 1018.94 1019.33 1019.70 1020.05 1020.40 1020.76
1013.36 1012.55 1011.78 1011.09 1010.52 1010.09 1009.81 1009.70 1009.75 1009.95 1010.28 1010.72 1011.22 1011.76 1012.30 1012.80 1013.25 1013.64 1013.96 1014.23 1014.47 1014.70 1014.93 1015.20 1015.53 1015.90 1016.34 1016.82 1017.33 1017.86 1018.38 1018.87 1019.35 1019.79 1020.21 1020.61 1021.01 1021.43
1014.00 1013.25 1012.56 1011.95 1011.44 1011.07 1010.83 1010.74 1010.79 1010.97 1011.26 1011.63 1012.06 1012.51 1012.96 1013.38 1013.76 1014.08 1014.36 1014.60 1014.82 1015.04 1015.28 1015.56 1015.89 1016.28 1016.73 1017.22 1017.74 1018.28 1018.82 1019.34 1019.84 1020.32 1020.78 1021.23 1021.67 1022.12
1014.62 1013.95 1013.33 1012.79 1012.35 1012.02 1011.81 1011.72 1011.75 1011.88 1012.10 1012.39 1012.72 1013.08 1013.43 1013.78 1014.09 1014.38 1014.63 1014.87 1015.11 1015.36 1015.64 1015.96 1016.33 1016.75 1017.22 1017.72 1018.25 1018.79 1019.33 1019.86 1020.37 1020.87 1021.35 1021.82 1022.28 1022.74
1015.23 1014.63 1014.09 1013.61 1013.22 1012.92 1012.73 1012.63 1012.61 1012.68 1012.82 1013.01 1013.25 1013.50 1013.77 1014.04 1014.31 1014.58 1014.84 1015.11 1015.39 1015.70 1016.04 1016.41 1016.83 1017.28 1017.76 1018.27 1018.80 1019.33 1019.85 1020.37 1020.87 1021.36 1021.84 1022.31 1022.77 1023.22
1015.84 1015.30 1014.81 1014.38 1014.03 1013.75 1013.55 1013.43 1013.37 1013.38 1013.43 1013.53 1013.67 1013.84 1014.04 1014.26 1014.50 1014.76 1015.05 1015.36 1015.70 1016.07 1016.47 1016.90 1017.35 1017.83 1018.33 1018.84 1019.34 1019.85 1020.34 1020.83 1021.30 1021.77 1022.22 1022.67 1023.11 1023.54
1016.43 1015.93 1015.47 1015.07 1014.74 1014.47 1014.27 1014.12 1014.02 1013.97 1013.95 1013.98 1014.05 1014.15 1014.30 1014.48 1014.71 1014.98 1015.30 1015.66 1016.05 1016.48 1016.93 1017.41 1017.90 1018.39 1018.89 1019.38 1019.86 1020.32 1020.78 1021.22 1021.66 1022.08 1022.50 1022.92 1023.32 1023.71
Thickness
5478 5478 5478 5479 5479 5478 5477 5476 5475 5481 5489 5494 5497 5502 5503 5502 5503 5504 5504 5505 5509 5516 5525 5539 5556 5573 5587 5597 5604 5609 5614 5618 5620 5620 5619 5618 5617 5615
5468 5468 5469 5470 5470 5470 5469 5468 5467 5468 5475 5482 5486 5490 5491 5494 5494 5494 5494 5496 5500 5507 5517 5531 5549 5569 5584 5593 5598 5602 5604 5605 5604 5604 5604 5603 5602 5600
5462 5462 5464 5464 5465 5465 5464 5464 5465 5465 5469 5476 5478 5481 5483 5487 5487 5487 5488 5490 5493 5500 5511 5524 5541 5560 5578 5586 5588 5589 5589 5589 5588 5588 5588 5587 5586 5585
5457 5458 5459 5461 5462 5462 5462 5463 5463 5464 5465 5470 5474 5476 5480 5482 5482 5482 5482 5484 5487 5493 5503 5513 5524 5540 5557 5567 5569 5570 5571 5572 5572 5572 5572 5572 5571 5569
5453 5454 5456 5457 5460 5461 5462 5463 5464 5465 5466 5468 5472 5474 5476 5477 5477 5477 5477 5479 5482 5487 5494 5500 5505 5514 5527 5539 5546 5551 5554 5556 5558 5557 5557 5556 5555 5553
5452 5453 5455 5457 5459 5462 5464 5465 5466 5467 5468 5469 5471 5474 5475 5474 5474 5474 5473 5473 5475 5478 5483 5488 5491 5497 5506 5516 5526 5533 5538 5541 5542 5542 5541 5540 5538 5537
5455 5456 5457 5458 5461 5463 5465 5467 5468 5470 5472 5472 5473 5474 5475 5473 5473 5472 5470 5467 5467 5469 5473 5475 5481 5485 5491 5499 5507 5515 5520 5523 5524 5524 5524 5523 5522 5520
5456 5458 5459 5462 5464 5466 5469 5471 5473 5474 5477 5477 5478 5478 5477 5475 5472 5470 5469 5471 5465 5459 5464 5463 5467 5473 5477 5484 5492 5499 5503 5506 5507 5508 5508 5507 5506 5505
5456 5457 5460 5463 5464 5469 5474 5479 5483 5483 5482 5483 5483 5482 5479 5477 5473 5468 5469 5467 5461 5454 5457 5454 5455 5459 5464 5470 5477 5483 5487 5489 5492 5493 5493 5493 5492 5492
5455 5456 5457 5460 5464 5468 5478 5486 5491 5491 5489 5487 5488 5486 5483 5477 5473 5469 5463 5458 5452 5449 5452 5451 5448 5452 5456 5459 5464 5469 5473 5476 5479 5480 5480 5480 5480 5479
5451 5453 5453 5455 5461 5468 5479 5487 5492 5494 5492 5490 5488 5485 5480 5475 5471 5466 5460 5459 5451 5445 5446 5449 5448 5450 5451 5453 5454 5458 5462 5465 5467 5469 5469 5470 5470 5471
5445 5449 5449 5450 5456 5465 5475 5482 5488 5491 5491 5487 5483 5478 5473 5468 5467 5468 5467 5463 5454 5446 5444 5448 5449 5452 5450 5450 5452 5454 5455 5455 5458 5459 5460 5462 5465 5467
5436 5440 5443 5446 5452 5460 5468 5474 5479 5484 5485 5483 5478 5472 5466 5463 5461 5461 5461 5461 5459 5452 5448 5451 5453 5454 5455 5450 5450 5451 5453 5454 5454 5454 5455 5457 5460 5463
5425 5430 5434 5441 5448 5455 5462 5466 5471 5476 5477 5476 5472 5467 5463 5460 5457 5456 5455 5455 5454 5454 5452 5455 5457 5455 5452 5450 5448 5448 5449 5451 5453 5453 5451 5451 5454 5457
5415 5419 5427 5436 5444 5451 5454 5460 5464 5467 5469 5468 5466 5462 5459 5456 5454 5452 5450 5450 5450 5451 5453 5455 5455 5453 5451 5449 5447 5447 5448 5448 5449 5451 5452 5454 5455 5457
5408 5413 5422 5430 5437 5443 5448 5452 5455 5457 5459 5459 5457 5455 5452 5450 5449 5448 5448 5448 5449 5448 5450 5451 5450 5450 5447 5446 5446 5446 5447 5447 5448 5450 5451 5452 5454 5456
5397 5407 5415 5422 5427 5434 5440 5444 5447 5449 5450 5450 5450 5449 5447 5446 5444 5443 5445 5447 5447 5445 5445 5445 5445 5444 5444 5445 5446 5446 5446 5446 5448 5449 5450 5451 5452 5452
5392 5398 5403 5409 5414 5421 5429 5435 5438 5440 5441 5442 5443 5443 5442 5441 5440 5441 5443 5445 5444 5442 5441 5441 5442 5442 5441 5438 5440 5443 5444 5445 5446 5448 5450 5451 5450 5448
5386 5388 5391 5396 5403 5410 5418 5425 5429 5431 5433 5434 5435 5436 5436 5436 5437 5439 5441 5442 5442 5441 5440 5441 5444 5447 5447 5443 5436 5440 5444 5445 5447 5449 5449 5448 5447 5445
5375 5379 5382 5387 5394 5401 5408 5416 5421 5423 5424 5425 5427 5429 5430 5431 5433 5435 5438 5440 5441 5441 5442 5444 5447 5449 5448 5445 5443 5439 5439 5445 5447 5447 5445 5443 5440 5437
5366 5371 5375 5380 5386 5394 5401 5409 5414 5417 5418 5418 5420 5421 5423 5425 5428 5432 5434 5433 5438 5438 5438 5439 5440 5441 5440 5441 5440 5438 5436 5437 5441 5443 5446 5445 5444 5443
5360 5364 5369 5375 5380 5387 5395 5402 5408 5412 5415 5415 5415 5416 5418 5420 5423 5426 5429 5431 5432 5431 5430 5432 5433 5436 5438 5438 5437 5437 5437 5435 5433 5435 5437 5440 5444 5448
5357 5360 5365 5370 5376 5382 5389 5396 5402 5407 5411 5413 5413 5414 5415 5416 5418 5421 5425 5427 5427 5429 5432 5434 5436 5436 5435 5434 5434 5435 5436 5437 5437 5436 5431 5430 5435 5436